TimeEDT,TemperatureF,Dew PointF,Humidity,Sea Level PressureIn,VisibilityMPH,Wind Direction,Wind SpeedMPH,Gust SpeedMPH,PrecipitationIn,Events,Conditions,WindDirDegrees,DateUTC
12:54 AM,63.0,39.0,41,30.01,10.0,Calm,Calm,-,N/A,,Overcast,0,2013-05-06 04:54:00
1:54 AM,59.0,44.1,58,30.00,10.0,North,4.6,-,N/A,,Overcast,360,2013-05-06 05:54:00
2:54 AM,57.9,41.0,53,29.98,10.0,NNE,4.6,-,N/A,,Partly Cloudy,30,2013-05-06 06:54:00
3:54 AM,59.0,37.9,46,29.97,10.0,NE,4.6,-,N/A,,Overcast,40,2013-05-06 07:54:00
4:54 AM,57.9,37.9,47,29.96,10.0,NE,4.6,-,N/A,,Overcast,40,2013-05-06 08:54:00
5:54 AM,55.9,39.0,53,29.98,10.0,NNE,4.6,-,N/A,,Overcast,30,2013-05-06 09:54:00
6:54 AM,57.0,39.0,51,30.00,10.0,Calm,Calm,-,N/A,,Mostly Cloudy,0,2013-05-06 10:54:00
7:54 AM,57.9,41.0,53,30.01,10.0,ENE,3.5,-,N/A,,Scattered Clouds,70,2013-05-06 11:54:00
8:54 AM,60.1,41.0,49,30.02,10.0,ENE,3.5,-,N/A,,Overcast,60,2013-05-06 12:54:00
9:54 AM,62.1,41.0,46,30.02,10.0,East,5.8,-,N/A,,Clear,100,2013-05-06 13:54:00
10:54 AM,64.0,43.0,46,30.03,10.0,ESE,4.6,-,N/A,,Mostly Cloudy,110,2013-05-06 14:54:00
11:54 AM,69.1,46.0,44,30.02,10.0,ENE,3.5,-,N/A,,Clear,60,2013-05-06 15:54:00
12:54 PM,71.1,48.0,44,30.00,10.0,NNE,5.8,-,N/A,,Clear,20,2013-05-06 16:54:00
1:54 PM,73.9,41.0,30,29.99,10.0,NNE,8.1,-,N/A,,Clear,30,2013-05-06 17:54:00
2:54 PM,75.9,30.9,19,29.98,10.0,ENE,8.1,-,N/A,,Clear,60,2013-05-06 18:54:00
3:54 PM,75.9,36.0,23,29.96,10.0,East,3.5,-,N/A,,Clear,80,2013-05-06 19:54:00
4:54 PM,77.0,39.0,25,29.94,10.0,Variable,5.8,-,N/A,,Clear,0,2013-05-06 20:54:00
5:54 PM,75.9,39.0,26,29.94,10.0,Calm,Calm,-,N/A,,Scattered Clouds,0,2013-05-06 21:54:00
6:54 PM,73.0,48.9,42,29.95,10.0,South,10.4,-,N/A,,Overcast,170,2013-05-06 22:54:00
7:24 PM,71.6,44.6,38,29.96,10.0,West,4.6,-,N/A,,Overcast,280,2013-05-06 23:24:00
7:54 PM,72.0,46.0,40,29.96,10.0,North,3.5,-,N/A,,Mostly Cloudy,360,2013-05-06 23:54:00
8:54 PM,62.6,41.0,45,29.99,10.0,NNW,4.6,-,N/A,,Clear,340,2013-05-07 00:54:00
9:54 PM,57.9,41.0,53,30.00,10.0,NW,5.8,-,N/A,,Clear,310,2013-05-07 01:54:00
10:54 PM,55.9,42.1,60,30.01,10.0,Calm,Calm,-,N/A,,Partly Cloudy,0,2013-05-07 02:54:00
11:54 PM,59.0,37.9,46,30.00,10.0,Calm,Calm,-,N/A,,Clear,0,2013-05-07 03:54:00